TimeEDT,TemperatureF,Dew PointF,Humidity,Sea Level PressureIn,VisibilityMPH,Wind Direction,Wind SpeedMPH,Gust SpeedMPH,PrecipitationIn,Events,Conditions,WindDirDegrees,DateUTC
12:54 AM,66.9,55.0,66,30.01,10.0,Calm,Calm,-,N/A,,Clear,0,2013-08-05 04:54:00
1:54 AM,66.0,55.0,68,30.01,10.0,Calm,Calm,-,N/A,,Clear,0,2013-08-05 05:54:00
2:54 AM,61.0,55.9,83,30.02,10.0,Calm,Calm,-,N/A,,Clear,0,2013-08-05 06:54:00
3:54 AM,64.0,55.0,73,30.03,10.0,North,3.5,-,N/A,,Partly Cloudy,350,2013-08-05 07:54:00
4:54 AM,63.0,55.9,78,30.04,10.0,Calm,Calm,-,N/A,,Clear,0,2013-08-05 08:54:00
5:54 AM,62.1,55.9,80,30.04,10.0,Calm,Calm,-,N/A,,Clear,0,2013-08-05 09:54:00
6:54 AM,61.0,55.9,83,30.06,10.0,Calm,Calm,-,N/A,,Clear,0,2013-08-05 10:54:00
7:54 AM,66.9,57.0,70,30.08,10.0,Calm,Calm,-,N/A,,Clear,0,2013-08-05 11:54:00
8:54 AM,72.0,57.0,59,30.09,10.0,North,3.5,-,N/A,,Clear,350,2013-08-05 12:54:00
9:54 AM,73.0,53.1,49,30.10,10.0,North,8.1,-,N/A,,Clear,10,2013-08-05 13:54:00
10:54 AM,75.0,52.0,44,30.10,10.0,NNE,4.6,-,N/A,,Clear,20,2013-08-05 14:54:00
11:54 AM,75.9,53.1,45,30.10,10.0,Variable,4.6,-,N/A,,Clear,0,2013-08-05 15:54:00
12:54 PM,77.0,55.0,47,30.08,10.0,Variable,3.5,-,N/A,,Clear,0,2013-08-05 16:54:00
1:54 PM,77.0,53.1,43,30.07,10.0,Variable,5.8,-,N/A,,Mostly Cloudy,0,2013-08-05 17:54:00
2:54 PM,78.1,52.0,40,30.06,10.0,NNW,5.8,-,N/A,,Mostly Cloudy,340,2013-08-05 18:54:00
3:54 PM,79.0,52.0,39,30.04,10.0,WNW,5.8,-,N/A,,Clear,290,2013-08-05 19:54:00
4:54 PM,82.0,53.1,37,30.04,10.0,Variable,5.8,-,N/A,,Scattered Clouds,0,2013-08-05 20:54:00
5:54 PM,78.1,53.1,42,30.04,10.0,Variable,3.5,-,N/A,,Partly Cloudy,0,2013-08-05 21:54:00
6:54 PM,75.9,55.9,50,30.05,10.0,SE,5.8,-,N/A,,Mostly Cloudy,130,2013-08-05 22:54:00
7:54 PM,72.0,57.9,61,30.06,10.0,Calm,Calm,-,N/A,,Clear,0,2013-08-05 23:54:00
8:54 PM,68.0,60.1,76,30.08,10.0,ESE,3.5,-,N/A,,Clear,120,2013-08-06 00:54:00
9:54 PM,66.0,59.0,78,30.07,10.0,Calm,Calm,-,N/A,,Clear,0,2013-08-06 01:54:00
10:54 PM,66.0,60.1,81,30.06,10.0,SSE,3.5,-,N/A,,Clear,160,2013-08-06 02:54:00
11:54 PM,66.0,59.0,78,30.06,10.0,Calm,Calm,-,N/A,,Clear,0,2013-08-06 03:54:00